Regional Weather Roundup
Issued by NWS

Home | Current Version | Previous Version | Text Only | Print | Product List | Glossary On
Versions: 1 2 3 4 5 6 7 8 9 10 11 12 13 14 15 16 17 18 19 20 21 22 23 24 25 26 27
000
ASUS45 KBOU 202006
RWRCO

WEATHER ROUNDUP FOR COLORADO
NATIONAL WEATHER SERVICE DENVER/BOULDER CO
200 PM MDT SUN APR 20 2014

NOTE: "FAIR" INDICATES FEW OR NO CLOUDS BELOW 12000 FEET WITH NO
SIGNIFICANT WEATHER AND/OR OBSTRUCTIONS TO VISIBILITY.

COZ001>005-013-030-031-202100-
...NORTHWEST COLORADO...

CITY           SKY/WX    TMP DP  RH WIND       PRES   REMARKS
CRAIG          PTSUNNY   63  33  32 VRB3      30.12F
HAYDEN         PTSUNNY   61  36  39 E15       30.17F
MEEKER         PTSUNNY   64  29  26 VRB3      30.15F
MOUNT WERNER   PTSUNNY   45  25  45 W7        30.34S
STEAMBOAT SPGS PTSUNNY   62  26  25 SW8       30.15F
WALDEN         CLOUDY    50  32  50 NW23      30.21S
$$

COZ006>008-011-202100-
...WEST CENTRAL VALLEYS...

CITY           SKY/WX    TMP DP  RH WIND       PRES   REMARKS
GRAND JUNCTION PTSUNNY   68  40  35 VRB3      30.10F
MONTROSE       MOSUNNY   68  35  29 NW8       30.13F
EAGLE          PTSUNNY   59  37  44 NE8       30.16F
RIFLE          PTSUNNY   68  30  24 W5        30.09F
DELTA          MOSUNNY   72  36  27 SW3       30.09F
NUCLA            N/A     66  32  28 NW5       30.17F
$$

COZ017>023-064>068-202100-
...SOUTHWEST COLORADO...

CITY           SKY/WX    TMP DP  RH WIND       PRES   REMARKS
DURANGO        MOSUNNY   66  30  26 W8        30.11F
CORTEZ         MOSUNNY   70  31  23 VRB5G25   30.12F
PAGOSA SPRINGS LGT RAIN  60  25  26 NE3G21    30.16S
TELLURIDE      PTSUNNY   55  28  35 N5        30.26S
WOLF CREEK PAS PTSUNNY   37  23  56 N9G20     30.35S
$$

COZ009-010-012-014-032>034-037-058>063-202100-
...CENTRAL COLORADO...

CITY           SKY/WX    TMP DP  RH WIND       PRES   REMARKS
ASPEN          LGT RAIN  59  31  34 VRB6      30.17F
BUENA VISTA    CLOUDY    57  30  35 E7        30.18R
COPPER MTN     PTSUNNY   39  30  70 W16       30.37S
BERTHOUD PASS  MIX PCPN  30  19  64 N8G22     30.38F VSB 1/2 WCI  23
COTTONWOOD PAS CLOUDY    50  28  43 SE3       30.27S
GUNNISON       PTSUNNY   57  27  30 SE6       30.19F
KREMMLING      CLOUDY    55  32  41 SW7       30.18F
LEADVILLE      PTSUNNY   43  29  57 SW14      30.26F
MONARCH PASS   PTSUNNY   39  30  70 CALM      30.45F
SALIDA         PTSUNNY   64  29  26 NE3G12    30.23F
SUNLIGHT       PTSUNNY   46  28  49 W3        30.35F
WILKERSON PASS TSTM      37  32  81 CALM      30.35R
$$

COZ069>075-202100-
...SAN LUIS VALLEY/SANGRE DE CRISTO MOUNTAINS...

CITY           SKY/WX    TMP DP  RH WIND       PRES   REMARKS
ALAMOSA        PTSUNNY   62  32  32 VRB5      30.13F
LA VETA PASS   CLOUDY    39  34  81 NW7       30.25F
SAGUACHE       CLOUDY    59  27  29 NE7G28    30.17S
$$

COZ035-036-038>040-202100-
...NORTHERN COLORADO FRONT RANGE...

CITY           SKY/WX    TMP DP  RH WIND       PRES   REMARKS
DENVER INTL AP PTSUNNY   68  34  28 CALM      30.05F
DMNS CITY PARK   N/A     68  33  28 NE8       30.05F
AURORA         PTSUNNY   70  36  28 NW9G20    30.07F
FRONT RANGE AP NOT AVBL
ERIE MUNI ARPT MOSUNNY   69  36  29 CALM      30.03F
BOULDER MUN AP MOSUNNY   70  34  26 S3        30.03F
CENTENNIAL     PTSUNNY   67  33  28 NW8G18    30.07F
BROOMFIELD     PTSUNNY   68  39  34 S10       30.07F
FORT COLLINS   MOSUNNY   66  36  32 SW14      30.04F
LONGMONT       MOSUNNY   75  37  24 SE5       30.05S
$$

COZ041-046-047-076>085-087-088-202100-
...PIKES PEAK/PALMER DIVIDE AND SOUTHERN FOOTHILLS...

CITY           SKY/WX    TMP DP  RH WIND       PRES   REMARKS
COLO. SPRINGS  PTSUNNY   69  33  26 NE21G29   30.08F
A. F. ACADEMY  MOSUNNY   63  32  30 N14G21    30.10S
ELLICOTT       NOT AVBL
FALCON         PTSUNNY   64  32  30 NE13G22   30.12F
FORT CARSON    PTSUNNY   67  35  30 NE12G17   30.06F
LIMON          PTSUNNY   71  36  27 N17G26    30.04F
MONUMENT HILL  MOSUNNY   63  32  31 NE8G18    30.12F
TRINIDAD       LGT RAIN  56  47  71 W12       30.09F
$$

COZ042>045-048>051-090-091-202100-
...NORTHEAST COLORADO...

CITY           SKY/WX    TMP DP  RH WIND       PRES   REMARKS
GREELEY ARPT   PTSUNNY   70  37  30 E8        30.02S
AKRON          MOSUNNY   72  37  28 N16G29    30.01F
BURLINGTON     PTSUNNY   70  46  42 NE9G21    30.00S
WRAY           PTSUNNY   67  53  59 E7        29.99F
STERLING       MOSUNNY   77  39  25 SE3       29.97F
HOLYOKE        PTSUNNY   73  45  35 SE6       29.99F
FORT MORGAN    MOSUNNY   73  35  25 NW6       30.00F
$$

COZ086-089-092>099-202100-
...SOUTHEAST COLORADO...

CITY           SKY/WX    TMP DP  RH WIND       PRES   REMARKS
PUEBLO         CLOUDY    68  33  27 CALM      30.02S
LA JUNTA       CLOUDY    69  43  38 NW13      29.98F
LAMAR          PTSUNNY   68  48  48 N7        29.94F
SPRINGFIELD      N/A     69  45  41 NW17      29.97F
$$



USA.gov is the U.S. government's official web portal to all federal, state and local government web resources and services.